This is the latest recevied weather packets stored in our database for station/object NC4M. If no packets are shown the sender has not sent any weather packets the latest 10 day(s).
| Time | Temp. | Humidity | Pressure | Rain* | Wind** | Luminosity | Snow |
|---|---|---|---|---|---|---|---|
| 1778024805 | 6.67° C | 92% | 1011.2 hPa | 3.05 mm | - | 11 W/m² | - |
| 1778024502 | 7.22° C | 92% | 1011.2 hPa | 1.27 mm | - | 10 W/m² | - |
| 1778024199 | 7.22° C | 93% | 1011.1 hPa | 0 mm | - | 6 W/m² | - |
| 1778023897 | 7.22° C | 93% | 1011.1 hPa | 0 mm | - | 13 W/m² | - |
| 1778023594 | 7.22° C | 93% | 1011.1 hPa | 1.78 mm | - | 15 W/m² | - |
| 1778023292 | 7.22° C | 93% | 1010.9 hPa | 1.78 mm | - | 9 W/m² | - |
| 1778022988 | 7.22° C | 93% | 1010.7 hPa | 0 mm | - | 5 W/m² | - |
| 1778022687 | 7.22° C | 92% | 1010.6 hPa | 0 mm | - | 13 W/m² | - |
| 1778022385 | 7.22° C | 92% | 1010.2 hPa | 1.27 mm | - | 27 W/m² | - |
| 1778022081 | 7.22° C | 92% | 1010.4 hPa | 4.32 mm | - | 28 W/m² | - |
| 1778021778 | 7.22° C | 92% | 1010.6 hPa | 4.83 mm | - | 20 W/m² | - |
| 1778021474 | 7.22° C | 92% | 1010.3 hPa | 1.78 mm | - | 33 W/m² | - |
| 1778021170 | 7.22° C | 92% | 1010.6 hPa | 0 mm | - | 14 W/m² | - |
| 1778020868 | 7.22° C | 92% | 1010.3 hPa | 0 mm | - | 19 W/m² | - |
| 1778020565 | 7.22° C | 92% | 1010.5 hPa | 1.27 mm | - | 25 W/m² | - |
| 1778020261 | 7.22° C | 92% | 1010.2 hPa | 1.27 mm | - | 76 W/m² | - |
| 1778019958 | 7.22° C | 92% | 1010.6 hPa | 0 mm | - | 38 W/m² | - |
| 1778019654 | 7.22° C | 92% | 1010.5 hPa | 1.78 mm | - | 33 W/m² | - |
| 1778019351 | 7.78° C | 92% | 1010.4 hPa | 1.78 mm | - | 48 W/m² | - |
| 1778019047 | 7.22° C | 92% | 1010.5 hPa | 0 mm | - | 28 W/m² | - |
| 1778018745 | 7.22° C | 91% | 1010.7 hPa | 1.27 mm | - | 42 W/m² | - |
| 1778018442 | 7.78° C | 91% | 1010.5 hPa | 1.27 mm | - | 33 W/m² | - |
| 1778018141 | 7.78° C | 91% | 1010 hPa | 0 mm | - | 38 W/m² | - |
| 1778017838 | 7.78° C | 90% | 1010.1 hPa | 1.78 mm | - | 32 W/m² | - |
| 1778017536 | 7.78° C | 88% | 1010.3 hPa | 0 mm | - | 39 W/m² | - |
* Rain latest hour (hover to see other rain measurements)
** Current wind speed in m/s (hover to see current wind gust speed)